Flag for U.S.A. Weather past 2 weeks in Roanoke, Virginia, U.S.A.

Now
51 °F

Clear.


Feels Like: 51 °F
Forecast: 48 / 69 °F
Wind: No wind

Location: Roanoke Regional Airport

Current Time: Apr 22, 2015 at 12:49:56 AM

Latest Report: Apr 21, 2015 at 11:54 PM


Visibility: 10 mi

Pressure: 29.88 "Hg

Humidity: 44%

Dew point: 30 °F

Location of RoanokeLocation

Historic Weather in Roanoke — Graph

°F

Roanoke temperature yesterday

Maximum temperature yesterday: 64 °F (at 3:54 PM)
Minimum temperature yesterday: 50 °F (at 6:54 AM)
Average temperature yesterday: 57 °F

Past Weeks' High & Low Weather Summary

 TemperatureHumidityPressure
High79 °F (Apr 8, 2:54 PM)100% (Apr 14, 8:54 AM)30.43 "Hg (Apr 14, 8:54 AM)
Low40 °F (Apr 12, 5:54 AM)17% (Apr 11, 4:54 PM)29.57 "Hg (Apr 20, 4:54 PM)
Average60 °F72%30.08 "Hg
* Reported Apr 6 10:54 PM — Apr 21 10:54 PM, Roanoke, Weather by CustomWeather, © 2015

Note: Actual official high and low records may vary slightly from our data, if they occured in-between our weather recording intervals... More about our weather records

Advertising

Roanoke weather history for previous 24 hours

 ConditionsComfort  
Time TempWeatherWind HumidityBarometerVisibility
10:54 PM
Tue, Apr 21
51 °FClear.3 mph46%29.88 "Hg10 mi
9:54 PM57 °FClear.3 mph29%29.87 "Hg10 mi
8:54 PM57 °FSunny.5 mph29%29.86 "Hg10 mi
7:54 PM59 °FPassing clouds.13 mph26%29.84 "Hg10 mi
6:54 PM62 °FPassing clouds.15 mph23%29.83 "Hg10 mi
5:54 PM64 °FScattered clouds.20 mph22%29.81 "Hg10 mi
4:54 PM64 °FScattered clouds.21 mph27%29.80 "Hg10 mi
3:54 PM64 °FScattered clouds.17 mph27%29.79 "Hg10 mi
2:54 PM63 °FPassing clouds.15 mph30%29.81 "Hg10 mi
1:54 PM61 °FPassing clouds.20 mph30%29.83 "Hg10 mi
12:54 PM60 °FPassing clouds.16 mph32%29.85 "Hg10 mi
11:54 AM58 °FPassing clouds.14 mph35%29.87 "Hg10 mi
10:54 AM57 °FPassing clouds.16 mph37%29.88 "Hg10 mi
9:54 AM54 °FPassing clouds.15 mph38%29.86 "Hg10 mi
8:54 AM53 °FPassing clouds.24 mph43%29.86 "Hg10 mi
7:54 AM51 °FPassing clouds.16 mph50%29.85 "Hg10 mi
6:54 AM50 °FPassing clouds.18 mph54%29.83 "Hg10 mi
5:54 AM51 °FPassing clouds.10 mph61%29.80 "Hg10 mi
4:54 AM53 °FClear.16 mph51%29.78 "Hg10 mi
3:54 AM53 °FPassing clouds.14 mph59%29.76 "Hg10 mi
2:54 AM54 °FPassing clouds.20 mph59%29.75 "Hg10 mi
1:54 AM56 °FPassing clouds.21 mph65%29.74 "Hg10 mi
12:54 AM57 °FPassing clouds.12 mph69%29.71 "Hg10 mi
Weather by CustomWeather, © 2015

See weather overviewHow to use our weather pages